Tiempo cada hora Murkow

Hoy, 22 Octubre, Jueves

Tiempo Temperatura Precipitaciones Viento Presión Humedad
00:00 +11°C° 0 mm 4 mps 743 mmHg 77%
01:00 +11°C° 0 mm 4 mps 743 mmHg 78%
02:00 +11°C° 0 mm 4 mps 743 mmHg 77%
03:00 +11°C° 0 mm 4 mps 743 mmHg 77%
04:00 +11°C° 0 mm 4 mps 743 mmHg 77%
05:00 +11°C° 0 mm 4 mps 743 mmHg 77%
06:00 +11°C° 0 mm 4 mps 743 mmHg 77%
07:00 +11°C° 0 mm 3 mps 744 mmHg 77%
08:00 +12°C° 0 mm 4 mps 744 mmHg 72%
09:00 +14°C° 0 mm 4 mps 744 mmHg 66%
10:00 +17°C° 0 mm 4 mps 744 mmHg 60%
11:00 +18°C° 0 mm 3 mps 744 mmHg 58%
12:00 +19°C° 0 mm 3 mps 744 mmHg 56%
13:00 +20°C° 0 mm 3 mps 744 mmHg 54%
14:00 +19°C° 0 mm 3 mps 744 mmHg 59%
15:00 +18°C° 0 mm 3 mps 744 mmHg 63%
16:00 +17°C° 0 mm 3 mps 744 mmHg 68%
17:00 +16°C° 0 mm 3 mps 744 mmHg 71%
18:00 +14°C° 0 mm 3 mps 744 mmHg 74%
19:00 +13°C° 0 mm 3 mps 744 mmHg 77%
20:00 +13°C° 0 mm 3 mps 744 mmHg 77%
21:00 +12°C° 0 mm 3 mps 744 mmHg 77%
22:00 +12°C° 0 mm 3 mps 744 mmHg 77%
23:00 +12°C° 0 mm 3 mps 744 mmHg 77%

Mañana, 23 Octubre, Viernes

Tiempo Temperatura Precipitaciones Viento Presión Humedad
00:00 +12°C° 0 mm 3 mps 744 mmHg 76%
01:00 +13°C° 0 mm 2 mps 744 mmHg 76%
02:00 +13°C° 0 mm 2 mps 743 mmHg 77%
03:00 +12°C° 0 mm 2 mps 743 mmHg 78%
04:00 +12°C° 0 mm 2 mps 743 mmHg 80%
05:00 +11°C° 0 mm 3 mps 742 mmHg 80%
06:00 +11°C° 0 mm 3 mps 742 mmHg 80%
07:00 +10°C° 0 mm 3 mps 742 mmHg 80%
08:00 +12°C° 0 mm 3 mps 742 mmHg 76%
09:00 +13°C° 0 mm 3 mps 742 mmHg 73%
10:00 +14°C° 0 mm 3 mps 742 mmHg 69%
11:00 +16°C° 0 mm 3 mps 741 mmHg 66%
12:00 +18°C° 0 mm 3 mps 741 mmHg 62%
13:00 +19°C° 0 mm 3 mps 741 mmHg 59%
14:00 +18°C° 0 mm 2 mps 741 mmHg 64%
15:00 +17°C° 0 mm 2 mps 741 mmHg 68%
16:00 +17°C° 0 mm 2 mps 740 mmHg 73%
17:00 +16°C° 0 mm 2 mps 740 mmHg 75%
18:00 +16°C° 0 mm 2 mps 740 mmHg 78%
19:00 +15°C° 0 mm 2 mps 740 mmHg 80%
20:00 +15°C° 0.1 mm 2 mps 740 mmHg 82%
21:00 +15°C° 0.1 mm 2 mps 740 mmHg 84%
22:00 +14°C° 0.1 mm 1 mps 740 mmHg 87%
23:00 +14°C° 0.8 mm 2 mps 740 mmHg 88%

Pasado mañana, 24 Octubre, Sábado

Tiempo Temperatura Precipitaciones Viento Presión Humedad
00:00 +14°C° 0.8 mm 2 mps 740 mmHg 90%
01:00 +14°C° 0.8 mm 2 mps 740 mmHg 92%
02:00 +13°C° 1.8 mm 2 mps 740 mmHg 93%
03:00 +13°C° 1.8 mm 2 mps 740 mmHg 94%
04:00 +13°C° 1.8 mm 2 mps 740 mmHg 94%
05:00 +12°C° 0.3 mm 3 mps 740 mmHg 94%
06:00 +12°C° 0.3 mm 3 mps 740 mmHg 94%
07:00 +12°C° 0.3 mm 3 mps 740 mmHg 93%
08:00 +13°C° 0.1 mm 3 mps 741 mmHg 89%
09:00 +14°C° 0.1 mm 4 mps 741 mmHg 85%
10:00 +14°C° 0.1 mm 5 mps 741 mmHg 80%
11:00 +15°C° 0.2 mm 5 mps 742 mmHg 77%
12:00 +15°C° 0.2 mm 6 mps 742 mmHg 74%
13:00 +15°C° 0.2 mm 6 mps 742 mmHg 71%
14:00 +14°C° 0 mm 5 mps 742 mmHg 72%
15:00 +14°C° 0 mm 5 mps 742 mmHg 73%
16:00 +13°C° 0 mm 4 mps 743 mmHg 74%
17:00 +12°C° 0 mm 4 mps 743 mmHg 74%
18:00 +11°C° 0 mm 4 mps 744 mmHg 75%
19:00 +10°C° 0 mm 4 mps 744 mmHg 75%
20:00 +10°C° 0 mm 3 mps 745 mmHg 78%
21:00 +9°C° 0 mm 2 mps 745 mmHg 80%
22:00 +9°C° 0 mm 2 mps 745 mmHg 83%
23:00 +8°C° 0 mm 2 mps 745 mmHg 84%

, 25 Octubre, Domingo

Tiempo Temperatura Precipitaciones Viento Presión Humedad
00:00 +8°C° 0 mm 2 mps 745 mmHg 85%
01:00 +9°C° 0 mm 1 mps 745 mmHg 86%
02:00 +9°C° 0 mm 1 mps 745 mmHg 85%
03:00 +8°C° 0 mm 2 mps 745 mmHg 84%
04:00 +8°C° 0 mm 2 mps 745 mmHg 84%
05:00 +8°C° 0 mm 2 mps 745 mmHg 85%
06:00 +8°C° 0 mm 2 mps 745 mmHg 85%
07:00 +8°C° 0 mm 2 mps 745 mmHg 86%
08:00 +9°C° 0 mm 2 mps 745 mmHg 81%
09:00 +11°C° 0 mm 3 mps 745 mmHg 77%
10:00 +12°C° 0 mm 3 mps 745 mmHg 72%
11:00 +13°C° 0 mm 3 mps 744 mmHg 68%
12:00 +14°C° 0 mm 3 mps 744 mmHg 65%
13:00 +16°C° 0 mm 3 mps 744 mmHg 61%
14:00 +14°C° 0 mm 3 mps 743 mmHg 64%
15:00 +15°C° 0 mm 2 mps 743 mmHg 67%
16:00 +14°C° 0 mm 2 mps 743 mmHg 70%
17:00 +13°C° 0 mm 2 mps 743 mmHg 72%
18:00 +11°C° 0 mm 3 mps 743 mmHg 75%
19:00 +11°C° 0 mm 3 mps 743 mmHg 77%
20:00 +10°C° 0 mm 3 mps 743 mmHg 77%
21:00 +10°C° 0 mm 3 mps 743 mmHg 78%
22:00 +9°C° 0 mm 3 mps 743 mmHg 78%
23:00 +9°C° 0 mm 3 mps 742 mmHg 80%

25 Octubre, Domingo

Tiempo Temperatura Precipitaciones Viento Presión Humedad
00:00 +8°C° 0 mm 2 mps 745 mmHg 85%
01:00 +9°C° 0 mm 1 mps 745 mmHg 86%
02:00 +9°C° 0 mm 1 mps 745 mmHg 85%
03:00 +8°C° 0 mm 2 mps 745 mmHg 84%
04:00 +8°C° 0 mm 2 mps 745 mmHg 84%
05:00 +8°C° 0 mm 2 mps 745 mmHg 85%
06:00 +8°C° 0 mm 2 mps 745 mmHg 85%
07:00 +8°C° 0 mm 2 mps 745 mmHg 86%
08:00 +9°C° 0 mm 2 mps 745 mmHg 81%
09:00 +11°C° 0 mm 3 mps 745 mmHg 77%
10:00 +12°C° 0 mm 3 mps 745 mmHg 72%
11:00 +13°C° 0 mm 3 mps 744 mmHg 68%
12:00 +14°C° 0 mm 3 mps 744 mmHg 65%
13:00 +16°C° 0 mm 3 mps 744 mmHg 61%
14:00 +14°C° 0 mm 3 mps 743 mmHg 64%
15:00 +15°C° 0 mm 2 mps 743 mmHg 67%
16:00 +14°C° 0 mm 2 mps 743 mmHg 70%
17:00 +13°C° 0 mm 2 mps 743 mmHg 72%
18:00 +11°C° 0 mm 3 mps 743 mmHg 75%
19:00 +11°C° 0 mm 3 mps 743 mmHg 77%
20:00 +10°C° 0 mm 3 mps 743 mmHg 77%
21:00 +10°C° 0 mm 3 mps 743 mmHg 78%
22:00 +9°C° 0 mm 3 mps 743 mmHg 78%
23:00 +9°C° 0 mm 3 mps 742 mmHg 80%

26 Octubre, Lunes

Tiempo Temperatura Precipitaciones Viento Presión Humedad
00:00 +9°C° 0 mm 3 mps 742 mmHg 82%
01:00 +9°C° 0 mm 3 mps 742 mmHg 84%
02:00 +9°C° 0 mm 3 mps 742 mmHg 85%
03:00 +8°C° 0 mm 3 mps 741 mmHg 86%
04:00 +8°C° 0 mm 3 mps 741 mmHg 88%
05:00 +8°C° 0 mm 3 mps 741 mmHg 88%
06:00 +8°C° 0 mm 3 mps 741 mmHg 88%
07:00 +8°C° 0 mm 3 mps 741 mmHg 88%
08:00 +10°C° 0 mm 3 mps 741 mmHg 81%
09:00 +11°C° 0 mm 3 mps 741 mmHg 74%
10:00 +13°C° 0 mm 3 mps 741 mmHg 67%
11:00 +14°C° 0 mm 3 mps 741 mmHg 63%
12:00 +15°C° 0 mm 4 mps 740 mmHg 58%
13:00 +17°C° 0 mm 4 mps 740 mmHg 54%
14:00 +16°C° 0 mm 3 mps 740 mmHg 58%
15:00 +16°C° 0 mm 3 mps 740 mmHg 62%
16:00 +15°C° 0 mm 2 mps 739 mmHg 66%
17:00 +14°C° 0 mm 2 mps 740 mmHg 68%
18:00 +13°C° 0 mm 3 mps 740 mmHg 70%
19:00 +12°C° 0 mm 3 mps 740 mmHg 72%
20:00 +13°C° 0 mm 2 mps 740 mmHg 74%
21:00 +12°C° 0 mm 2 mps 740 mmHg 75%
22:00 +12°C° 0 mm 2 mps 740 mmHg 76%
23:00 +12°C° 0 mm 2 mps 740 mmHg 77%

27 Octubre, Martes

Tiempo Temperatura Precipitaciones Viento Presión Humedad
00:00 +10°C° 0 mm 2 mps 740 mmHg 78%
01:00 +10°C° 0 mm 2 mps 740 mmHg 80%
02:00 +10°C° 0 mm 2 mps 740 mmHg 81%
03:00 +10°C° 0 mm 2 mps 740 mmHg 81%
04:00 +10°C° 0 mm 2 mps 740 mmHg 82%
05:00 +11°C° 0 mm 1 mps 740 mmHg 82%
06:00 +11°C° 0 mm 1 mps 741 mmHg 82%
07:00 +11°C° 0 mm 1 mps 741 mmHg 82%
08:00 +12°C° 0 mm 1 mps 741 mmHg 81%
09:00 +12°C° 0 mm 1 mps 741 mmHg 79%
10:00 +13°C° 0 mm 1 mps 741 mmHg 78%
11:00 +14°C° 0 mm 1 mps 741 mmHg 76%
12:00 +14°C° 0 mm 2 mps 742 mmHg 74%
13:00 +14°C° 0 mm 3 mps 742 mmHg 73%
14:00 +15°C° 0 mm 2 mps 742 mmHg 74%
15:00 +14°C° 0 mm 2 mps 742 mmHg 76%
16:00 +14°C° 0 mm 2 mps 742 mmHg 78%
17:00 +13°C° 0 mm 2 mps 743 mmHg 81%
18:00 +13°C° 0 mm 2 mps 743 mmHg 84%
19:00 +12°C° 0 mm 2 mps 743 mmHg 86%
20:00 +12°C° 0 mm 2 mps 744 mmHg 86%
21:00 +12°C° 0 mm 2 mps 744 mmHg 87%
22:00 +12°C° 0 mm 2 mps 744 mmHg 87%
23:00 +12°C° 0 mm 2 mps 744 mmHg 87%
Mostrar más

Necesitamos Su Consentimiento

Meteoprog y nuestros Proveedores de Servicios pueden almacenar y acceder a sus datos personales como cookies, identificadores de dispositivo u otras tecnologías similares de su dispositivo y procesar dichos datos para personalizar contenido y anuncios, además de ofrecer funciones de redes sociales y analizar el tráfico.

  • Almacenar y/o acceder a información en su dispositivo

    Se puede almacenar o acceder a cookies, identificadores de dispositivo u otra información de su dispositivo para los fines anteriormente indicados.

  • Anuncios y contenido personalizados, medición de anuncios y contenido, percepciones del público, y desarrollo de productos

    Los anuncios y el contenido pueden personalizarse en base a su perfil. Se pueden añadir más datos para personalizar mejor los anuncios y contenidos. Se puede medir el rendimiento de los anuncios y contenidos. Se puede obtener la percepción sobre el público que ha visto los anuncios y contenidos. Dichos datos pueden usarse para desarrollar o mejorar la experiencia del usuario, sistemas y software.

Al hacer clic en ‘Estoy De Acuerdo’ usted permitirá el uso de las cookies, identificadores de dispositivo, balizas web u otras tecnologías similares indicadas. Su configuración puede cambiarse desde el navegador de su dispositivo.

Para ciertos fines, los intereses legítimos pueden ser considerados por encima del consentimiento. Puede leer más sobre ello en nuestra Política de Privacidad y Cookies.